DAL230 KJFK-LIRF

Flight info

Callsign DAL230
Flight time N/A
Altitude 37000
Route MERIT DCT HFD DCT PUT DCT TOPPS DCT NEEKO/M082F370 NATZ GISTI/N0481F370 DCT LODLA DCT LESLU DCT LIZAD DCT JSY DCT ARSUK DCT RESMI UL612 OGULO DCT OKASI DCT OKEKO DCT MOU DCT MADIV DCT MOKIP DCT TUFTA DCT KOGAS DCT MEDAM DCT NITAM DCT MOGBO DCT ELB DCT ELKAP
Aircraft A333/H-SDE3GHIJ2J3J5M1RVWXY/LB2D1

Departure

Time 2026-04-30 19:51
Airport John F. Kennedy International Airport (KJFK)

Arrival

Time N/A
Airport Rome–Fiumicino Leonardo da Vinci International Airport (LIRF)
Time Latitude Longitude Altitude Speed Heading
2026-04-30 19:00 40.63845 -73.78038 42 ft 0 kts 263°
2026-04-30 19:32 40.63845 -73.78037 32 ft 1 kts 263°
2026-04-30 19:32 40.63847 -73.78016 20 ft 3 kts 263°
2026-04-30 19:32 40.63850 -73.77990 16 ft 3 kts 263°
2026-04-30 19:32 40.63852 -73.77965 27 ft 3 kts 256°
2026-04-30 19:33 40.63859 -73.77944 27 ft 3 kts 216°
2026-04-30 19:33 40.63876 -73.77934 27 ft 3 kts 184°
2026-04-30 19:33 40.63893 -73.77934 27 ft 1 kts 173°
2026-04-30 19:33 40.63906 -73.77936 27 ft 3 kts 173°
2026-04-30 19:34 40.63926 -73.77939 27 ft 3 kts 173°
2026-04-30 19:34 40.63946 -73.77942 27 ft 3 kts 173°
2026-04-30 19:34 40.63964 -73.77945 27 ft 1 kts 173°
2026-04-30 19:37 40.63961 -73.77945 27 ft 0 kts 173°
2026-04-30 19:37 40.63947 -73.77943 27 ft 4 kts 173°
2026-04-30 19:38 40.63910 -73.77937 27 ft 6 kts 173°
2026-04-30 19:38 40.63869 -73.77930 27 ft 6 kts 173°
2026-04-30 19:38 40.63828 -73.77924 27 ft 6 kts 173°
2026-04-30 19:38 40.63801 -73.77920 27 ft 0 kts 173°
2026-04-30 19:40 40.63796 -73.77919 27 ft 3 kts 173°
2026-04-30 19:40 40.63764 -73.77914 26 ft 7 kts 173°
2026-04-30 19:40 40.63707 -73.77904 27 ft 10 kts 173°
2026-04-30 19:41 40.63625 -73.77890 27 ft 13 kts 168°
2026-04-30 19:41 40.63553 -73.77824 29 ft 13 kts 124°
2026-04-30 19:41 40.63528 -73.77715 29 ft 12 kts 76°
2026-04-30 19:41 40.63588 -73.77644 29 ft 12 kts 32°
2026-04-30 19:42 40.63659 -73.77588 28 ft 12 kts 31°
2026-04-30 19:42 40.63733 -73.77530 23 ft 13 kts 30°
2026-04-30 19:42 40.63816 -73.77465 24 ft 14 kts 31°
2026-04-30 19:42 40.63893 -73.77405 28 ft 13 kts 30°
2026-04-30 19:43 40.63980 -73.77338 30 ft 16 kts 31°
2026-04-30 19:43 40.64084 -73.77256 28 ft 18 kts 31°
2026-04-30 19:43 40.64184 -73.77178 28 ft 17 kts 31°
2026-04-30 19:44 40.64392 -73.77018 30 ft 18 kts 25°
2026-04-30 19:44 40.64513 -73.76979 24 ft 18 kts 18°
2026-04-30 19:44 40.64618 -73.76901 22 ft 18 kts 31°
2026-04-30 19:44 40.64722 -73.76820 22 ft 17 kts 30°
2026-04-30 19:45 40.64819 -73.76745 30 ft 15 kts 31°
2026-04-30 19:45 40.64903 -73.76679 28 ft 14 kts 31°
2026-04-30 19:45 40.64987 -73.76613 30 ft 14 kts 31°
2026-04-30 19:45 40.65069 -73.76547 29 ft 13 kts 37°
2026-04-30 19:46 40.65092 -73.76475 30 ft 3 kts 101°
2026-04-30 19:46 40.65091 -73.76473 30 ft 0 kts 103°
2026-04-30 19:49 40.65088 -73.76458 29 ft 4 kts 107°
2026-04-30 19:49 40.65003 -73.76375 31 ft 12 kts 196°
2026-04-30 19:49 40.64907 -73.76446 28 ft 27 kts 210°
2026-04-30 19:50 40.64576 -73.76706 26 ft 82 kts 211°
2026-04-30 19:50 40.63941 -73.77201 30 ft 129 kts 210°
2026-04-30 19:50 40.63057 -73.77890 34 ft 166 kts 210°
2026-04-30 19:50 40.62038 -73.78710 423 ft 173 kts 212°
2026-04-30 19:51 40.61022 -73.79605 974 ft 179 kts 215°
2026-04-30 19:51 40.60065 -73.80654 1557 ft 179 kts 220°
2026-04-30 19:51 40.59112 -73.81780 1856 ft 189 kts 219°
2026-04-30 19:51 40.58038 -73.82943 1930 ft 214 kts 218°
2026-04-30 19:52 40.56841 -73.84271 2118 ft 235 kts 220°
2026-04-30 19:52 40.55482 -73.85539 2498 ft 243 kts 202°
2026-04-30 19:52 40.53831 -73.85845 3118 ft 244 kts 172°
2026-04-30 19:52 40.52252 -73.85006 3677 ft 251 kts 144°
2026-04-30 19:53 40.51154 -73.83198 4264 ft 261 kts 116°
2026-04-30 19:53 40.50613 -73.80898 4894 ft 267 kts 104°
2026-04-30 19:53 40.50516 -73.78437 5498 ft 275 kts 84°
2026-04-30 19:53 40.51216 -73.76082 6133 ft 284 kts 54°
2026-04-30 19:54 40.52624 -73.74243 6768 ft 289 kts 38°
2026-04-30 19:54 40.54313 -73.72782 7390 ft 293 kts 30°
2026-04-30 19:54 40.56132 -73.71538 8023 ft 297 kts 26°
2026-04-30 19:54 40.58007 -73.70372 8678 ft 300 kts 25°
2026-04-30 19:55 40.59887 -73.69211 9316 ft 303 kts 25°
2026-04-30 19:55 40.61794 -73.67994 9978 ft 306 kts 26°
2026-04-30 19:55 40.63723 -73.66716 10422 ft 316 kts 26°
2026-04-30 19:55 40.65722 -73.65350 10662 ft 333 kts 27°
2026-04-30 19:56 40.67816 -73.63891 10916 ft 348 kts 27°
2026-04-30 19:56 40.69998 -73.62354 11160 ft 363 kts 27°
2026-04-30 19:56 40.72267 -73.60749 11360 ft 377 kts 28°
2026-04-30 19:56 40.74617 -73.59084 11591 ft 390 kts 28°
2026-04-30 19:57 40.77031 -73.57374 11993 ft 396 kts 28°
2026-04-30 19:57 40.79472 -73.55647 12451 ft 401 kts 28°
2026-04-30 19:57 40.81944 -73.53898 12933 ft 405 kts 28°
2026-04-30 19:57 40.84445 -73.52134 13396 ft 410 kts 28°
2026-04-30 19:58 40.86968 -73.50356 13885 ft 413 kts 28°
2026-04-30 19:58 40.89518 -73.48555 14347 ft 416 kts 28°
2026-04-30 19:58 40.92072 -73.46747 14823 ft 418 kts 28°
2026-04-30 19:58 40.94641 -73.44923 15293 ft 420 kts 28°
2026-04-30 19:59 40.97220 -73.43089 15758 ft 422 kts 28°
2026-04-30 19:59 40.99813 -73.41241 16218 ft 424 kts 28°
2026-04-30 19:59 41.05041 -73.37514 17131 ft 429 kts 27°
2026-04-30 20:00 41.07675 -73.35635 17576 ft 431 kts 27°